This demonstration page uses our WeatherBlox Daily Observations layout. Learn more.

Left ArrowRight Arrow

41.12389, -100.76542

Hourly Observations for July 7, 2022

Temp ( °F °C ) Dew Point ( °F °C ) Humidity (%) Winds ( mph kmh ) Pressure ( in mb ) Visibility ( mi km ) Precip ( " mm )
12:53 am 00:53 Mostly Clear 72 22.2 68 20 87 87 Calm 29.91 1013 10 16 0.00 0.00
1:53 am 01:53 Clear 71 21.7 68 20 90 90 Calm 29.89 1012 10 16 0.00 0.00
2:53 am 02:53 Mostly Cloudy 71 21.7 67 19.4 87 87 Calm 29.91 1013 10 16 0.00 0.00
3:17 am 03:17 Cloudy 72 22.2 68 20 87 87 E 5 7 29.86 1011 10 16 0.00 0.00
3:53 am 03:53 Cloudy with Light Rain 72 22.2 69 20.6 91 91 E 5 7 29.87 1012 10 16 0.00 0.00
4:03 am 04:03 Cloudy 72 22.2 69 20.6 91 91 E 3 6 29.84 1010 10 16 0.00 0.00
4:28 am 04:28 Cloudy with Light Rain 73 22.8 69 20.6 87 87 NNW 5 7 29.83 1010 10 16 0.00 0.00
4:53 am 04:53 Cloudy with Light Rain 72 22.2 69 20.6 91 91 NE 7 11 29.86 1011 9 14 0.01 0.25
5:32 am 05:32 Cloudy 72 22.2 69 20.6 91 91 SSE 3 6 29.85 1011 10 16 0.00 0.00
5:53 am 05:53 Cloudy 73 22.8 70 21.1 90 90 S 5 7 29.88 1012 9 14 0.00 0.00
6:51 am 06:51 Cloudy with Rain 72 22 70 21 94 94 E 5 7 29.85 1011 2 3 0.07 1.78
6:53 am 06:53 Cloudy with Rain 72 22.2 70 21.1 94 94 E 5 7 29.88 1012 3 4 0.08 2.03
7:08 am 07:08 Cloudy with Light Rain 72 22.2 70 21.1 94 94 SSE 3 6 29.86 1011 3 5 0.03 0.76
7:18 am 07:18 Cloudy with Light Rain 72 22.2 70 21.1 94 94 Calm 29.87 1011 4 6 0.04 1.02
7:43 am 07:43 Mostly Cloudy with Mist and Fog 72 22.2 70 21.1 94 94 E 5 7 29.85 1011 4 6 0.04 1.02
7:53 am 07:53 Cloudy with Mist and Fog 72 22.2 70 21.1 94 94 E 6 9 29.90 1013 4 6 0.04 1.02
8:53 am 08:53 Cloudy 73 22.8 70 21.1 90 90 Calm 29.91 1013 9 14 0.00 0.00
9:13 am 09:13 Cloudy 74 23.3 71 21.7 91 91 Calm 29.87 1011 10 16 0.00 0.00
9:28 am 09:28 Mostly Cloudy 74 23.3 71 21.7 91 91 Calm 29.86 1011 10 16 0.00 0.00
9:46 am 09:46 Mostly Cloudy 75 23.9 71 21.7 88 88 E 5 7 29.85 1011 10 16 0.00 0.00
9:53 am 09:53 Mostly Cloudy 76 24.4 71 21.7 85 85 NE 3 6 29.92 1013 10 16 0.00 0.00
10:03 am 10:03 Mostly Cloudy 76 24.4 71 21.7 85 85 NNE 5 7 29.86 1011 10 16 0.00 0.00
10:11 am 10:11 Mostly Cloudy 76 24.4 71 21.7 85 85 NNE 5 7 29.85 1011 10 16 0.00 0.00
10:46 am 10:46 Mostly Cloudy 78 25.6 70 21.1 76 76 NE 8 13 29.85 1011 10 16 0.00 0.00
10:53 am 10:53 Cloudy 78 25.6 70 21.1 76 76 NE 10 17 29.92 1013 10 16 0.00 0.00
11:21 am 11:21 Mostly Cloudy 80 26.7 67 19.4 64 64 E 9 15 29.84 1010 10 16 0.00 0.00
11:53 am 11:53 Partly Cloudy 82 27.8 68 20 63 63 E 9 15 29.91 1013 10 16 0.00 0.00
12:27 pm 12:27 Mostly Cloudy 81 27.2 68 20 65 65 ESE 9 15 29.82 1010 10 16 0.00 0.00
12:53 pm 12:53 Partly Cloudy 83 28.3 68 20 61 61 ESE 7 11 29.92 1013 10 16 0.00 0.00
1:11 pm 13:11 Mostly Cloudy 78 25.6 66 18.9 67 67 NNW 22 35 29.87 1011 10 16 0.00 0.00
1:16 pm 13:16 Mostly Cloudy with Nearby Thunderstorms 72 22.2 63 17.2 73 73 N 15 24 29.91 1013 10 16 0.00 0.00
1:53 pm 13:53 Cloudy with Nearby Thunderstorms 74 23.3 67 19.4 79 79 N 7 11 29.95 1014 10 16 0.00 0.00
2:11 pm 14:11 Mostly Cloudy 73 22.8 67 19.4 81 81 Calm 29.87 1012 10 16 0.00 0.00
2:53 pm 14:53 Mostly Sunny 79 26.1 67 19.4 67 67 VRB 3 6 29.92 1013 10 16 0.00 0.00
3:53 pm 15:53 Sunny 85 29.4 67 19.4 55 55 NE 6 9 29.90 1013 10 16 0.00 0.00
4:53 pm 16:53 Mostly Sunny 87 30.6 67 19.4 51 51 NNE 8 13 29.90 1012 10 16 0.00 0.00
5:53 pm 17:53 Mostly Sunny 86 30 65 18.3 49 49 NNE 8 13 29.90 1013 10 16 0.00 0.00
6:53 pm 18:53 Sunny 84 28.9 66 18.9 55 55 N 13 20 29.91 1013 10 16 0.00 0.00
7:53 pm 19:53 Sunny 82 27.8 67 19.4 60 60 NNE 12 19 29.94 1014 10 16 0.00 0.00
8:53 pm 20:53 Sunny 78 25.6 68 20 71 71 NNE 7 11 29.98 1015 10 16 0.00 0.00
9:53 pm 21:53 Clear 74 23.3 68 20 82 82 ENE 5 7 29.98 1015 10 16 0.00 0.00
10:53 pm 22:53 Clear 71 21.7 67 19.4 87 87 NE 3 6 30.01 1016 10 16 0.00 0.00
11:53 pm 23:53 Clear 70 21.1 66 18.9 87 87 SW 3 6 30.01 1016 10 16 0.00 0.00

Powered by AerisWeather